AirNav   Everest Fuels
 
 410 users online  

1B1 Columbia County Airport
Hudson, New York, USA

GOING TO HUDSON?


FAA INFORMATION EFFECTIVE 11 AUGUST 2022

Location

FAA Identifier: 1B1
Lat/Long: 42-17-28.7000N 073-42-37.2000W
42-17.478333N 073-42.620000W
42.2913056,-73.7103333
(estimated)
Elevation: 198.1 ft. / 60.4 m (surveyed)
Variation: 13W (1965)
From city: 4 miles NE of HUDSON, NY
Time zone: UTC -4 (UTC -5 during Standard Time)
Zip code: 12075

Airport Operations

Airport use: Open to the public
Control tower: no
ARTCC: BOSTON CENTER
FSS: BURLINGTON FLIGHT SERVICE STATION
NOTAMs facility: BTV (NOTAM-D service available)
Attendance: 0700-1800
Wind indicator: yes
Segmented circle: yes
Lights: ACTVT REIL RWY 03 & 21; MIRL RWY 03/21 - CTAF.
Beacon: white-green (lighted land airport)
Operates sunset to sunrise.
International operations: customs landing rights airport

Airport Communications

CTAF/UNICOM: 123.05
WX AWOS-3: 133.525 (518-828-2577)
ALBANY APPROACH: 132.825
ALBANY DEPARTURE: 132.825

Nearby radio navigation aids

VOR radial/distance  VOR name  Freq  Var
ALBr184/27.7ALBANY VORTAC115.3013W
PWLr003/31.7PAWLING VOR/DME114.3012W
CTRr283/33.8CHESTER VOR/DME115.1013W
IGNr020/37.9KINGSTON VOR/DME117.6012W

 
NDB name  Hdg/Dist  Freq  Var  ID
PHILMONT027/2.427213WPFH .--. ..-. ....
HUNTER178/35.235614WHEU .... . ..-

Airport Services

Fuel available: 100 100LL JET-A1+
Parking: hangars and tiedowns
Airframe service: MAJOR
Powerplant service: MINOR
Bottled oxygen: HIGH
Bulk oxygen: HIGH

Runway Information

Runway 3/21

Dimensions: 5350 x 100 ft. / 1631 x 30 m
Surface: asphalt/grooved, in excellent condition
Weight bearing capacity: 
PCN 29 /F/C/X/T
Single wheel: 69.0
Double wheel: 111.0
Double tandem: 358.0
Runway edge lights: medium intensity
RUNWAY 3  RUNWAY 21
Latitude: 42-17.046325N42-17.909072N
Longitude: 073-42.738582W073-42.500060W
Elevation: 198.1 ft.194.0 ft.
Traffic pattern: leftleft
Runway heading: 024 magnetic, 011 true204 magnetic, 191 true
Displaced threshold: no160 ft.
Markings: nonprecision, in good conditionnonprecision, in good condition
Visual slope indicator: 4-light PAPI on left (3.00 degrees glide path)4-light PAPI on right (3.52 degrees glide path)
Runway end identifier lights: yesyes
Touchdown point: yes, no lightsyes, no lights
Obstructions: 27 ft. tree, 862 ft. from runway, 241 ft. left of centerline, 24:1 slope to clear34 ft. tree, 410 ft. from runway, 233 ft. left of centerline, 6:1 slope to clear

Airport Ownership and Management from official FAA records

Ownership: Publicly-owned
Owner: COUNTY OF COLUMBIA
401 STATE STREET
HUDSON, NY 12534
Phone 518-828-7011
Manager: DEAN KNOX
P.O. BOX 324, 178 ROUTE 23B
HUDSON, NY 12534
Phone 518-828-7011

Airport Operational Statistics

Aircraft based on the field: 16
Single engine airplanes: 12
Multi engine airplanes: 1
Jet airplanes: 2
Helicopters: 1
    
Aircraft operations: avg 53/day *
42% transient general aviation
36% local general aviation
21% air taxi
1% military
* for 12-month period ending 16 August 2019

Additional Remarks

FOR CD CTC ALBANY APCH AT 518-862-2299.

Instrument Procedures

NOTE: All procedures below are presented as PDF files. If you need a reader for these files, you should download the free Adobe Reader.

NOT FOR NAVIGATION. Please procure official charts for flight.
FAA instrument procedures published for use from 11 August 2022 at 0901Z to 08 September 2022 at 0900z.

 
IAPs - Instrument Approach Procedures
RNAV (GPS) RWY 03   download (250KB)
RNAV (GPS) RWY 21   download (286KB)
NOTE: Special Take-Off Minimums/Departure Procedures apply   download (275KB)

Other nearby airports with instrument procedures:

KGBR - Walter J Koladza Airport (15 nm SE)
4B0 - South Albany Airport (17 nm N)
KPSF - Pittsfield Municipal Airport (20 nm NE)
20N - Kingston-Ulster Airport (22 nm SW)
KALB - Albany International Airport (28 nm N)
 
Loc | Ops | Rwys | IFR | FBO | Links
Com | Nav | Svcs | Stats | Notes
Area around 1B1 (Columbia County Airport)
 
Road maps at: MapQuest Bing Google
 
Aerial photo
WARNING: Photo may not be current or correct
Aerial photo of 1B1 (Columbia County Airport)
Photo by Cathy Vajtay
Photo taken 25-Aug-2013
looking southeast from 4500'.

Do you have a better or more recent aerial photo of Columbia County Airport that you would like to share? If so, please send us your photo.

 
Sectional chart

 
Airport distance calculator
Flying to Columbia County Airport? Find the distance to fly.

From to 1B1

Sunrise and sunset
Times for 14-Aug-2022
 Local
(UTC-4)
 Zulu
(UTC)
Morning civil twilight05:3209:32
Sunrise06:0210:02
Sunset19:5723:57
Evening civil twilight20:2700:27

Current date and time
Zulu (UTC)  14-Aug-2022 07:41:48
Local (UTC-4)  14-Aug-2022 03:41:48
 
METAR
KPSF 
21nm NE 
140654Z AUTO 00000KT 10SM OVC070 12/11 A3009 RMK AO2 SLP171 T01170106
KALB 
28nm N 
140651Z 32003KT 10SM FEW080 15/13 A3008 RMK AO2 SLP186 T01500133
KAQW 
34nm NE 
140652Z AUTO 00000KT 10SM OVC070 13/12 A3010 RMK AO2 SLP194 T01280117
KSCH 
35nm N 
140045Z 00000KT 15SM OVC080 21/10 A3008 RMK LAST
KPOU 
40nm S 
140653Z AUTO 00000KT 10SM CLR 13/11 A3007 RMK AO2 SLP178 T01280106
KDDH 
41nm NE 
140654Z AUTO 00000KT 10SM OVC070 13/ A3009 RMK AO2 SLP188 T0128 $
TAF
KPSF 
21nm NE 
140520Z 1406/1506 00000KT P6SM OVC070 TEMPO 1408/1411 3SM BR FEW002 FM141200 VRB03KT P6SM FEW060
NOTAMs
Click for the latest NOTAMs
NOTAMs are issued by the DoD/FAA and will open in a separate window not controlled by AirNav.

 

 
 

FBO, Fuel Providers, and Aircraft Ground Support

  
 Business Name 
 
 Contact 
 
 Services / Description 
 
Fuel Prices
 
Comments
  
Richmor Aviation 518-828-9461
toll-free 800-359-2299
[web site]
[email]
Aviation fuel, Aircraft ground handling, Oxygen service, Aircraft parking (ramp or tiedown), Hangars, GPU / Power cart, Flight training, Aircraft rental, ...

More info about Richmor Aviation
independent
100LL Jet A
FS --- $7.91 
SS $6.73 --- 
 Updated 02-Aug-2022
 
   1 read write
FS=Full service
SS=Self service
Update Fuel Prices
 

Would you like to see your business listed on this page?

 If your business provides an interesting product or service to pilots, flight crews, aircraft, or users of the Columbia County Airport, you should consider listing it here.  To start the listing process, click on the button below
 
Add a business
 

Other Pages about Columbia County Airport

Update a link
 
Copyright © AirNav, LLC. All rights reserved. Privacy Policy  Contact